Camarillo, California, United States (93010)
Lat: 34.22N, Lon: 119.04W
Wx Zone: CAZ040
Local Info
Past Weather Observations for Today

NOTE: This archive is for the closest National Weather Service station to Camarillo. Information may differ from the station used for current weather conditions.

Click here for Long-term Archive

Time Weather Temperature Dewpoint Humidity Pressure Winds Precip Visibility
19:55
Clear
54°F / 12°C 50°F / 10°C 88% 30.18 in
(1022 mb)
NE 4.6 mph
(NE 7 kph)
- 9SM
18:55
Clear
55°F / 13°C 52°F / 11°C 88% 30.18 in
(1022 mb)
Calm - 10SM
17:55
Clear
57°F / 14°C 52°F / 11°C 82% 30.18 in
(1022 mb)
Calm - 10SM
16:55
Clear
59°F / 15°C 52°F / 11°C 77% 30.18 in
(1022 mb)
SSW 5.8 mph
(SSW 9 kph)
- 10SM
15:55
Clear
63°F / 17°C 48°F / 9°C 59% 30.15 in
(1021 mb)
Calm - 10SM
14:55
Clear
63°F / 17°C 46°F / 8°C 56% 30.15 in
(1021 mb)
SSW 3.5 mph
(SSW 6 kph)
- 10SM
13:55
Clear
63°F / 17°C 46°F / 8°C 56% 30.15 in
(1021 mb)
Calm - 10SM
12:55
Clear
63°F / 17°C 48°F / 9°C 59% 30.18 in
(1022 mb)
SSW 5.8 mph
(SSW 9 kph)
- 10SM
11:55
Clear
63°F / 17°C 45°F / 7°C 52% 30.24 in
(1024 mb)
SSW 4.6 mph
(SSW 7 kph)
- 10SM
10:55
Clear
61°F / 16°C 46°F / 8°C 59% 30.24 in
(1024 mb)
SSW 4.6 mph
(SSW 7 kph)
- 10SM
09:55
Clear
61°F / 16°C 46°F / 8°C 59% 30.24 in
(1024 mb)
ENE 4.6 mph
(ENE 7 kph)
- 10SM
08:55
Clear
55°F / 13°C 45°F / 7°C 67% 30.24 in
(1024 mb)
ENE 6.9 mph
(ENE 11 kph)
- 10SM
07:55
Clear
48°F / 9°C 43°F / 6°C 82% 30.24 in
(1024 mb)
Calm - 10SM
06:55
Clear
48°F / 9°C 43°F / 6°C 82% 30.21 in
(1023 mb)
ENE 6.9 mph
(ENE 11 kph)
- 10SM
05:55
Clear
48°F / 9°C 43°F / 6°C 82% 30.21 in
(1023 mb)
ENE 6.9 mph
(ENE 11 kph)
- 10SM
04:55
Clear
50°F / 10°C 43°F / 6°C 76% 30.21 in
(1023 mb)
NW 3.5 mph
(NW 6 kph)
- 10SM
03:55
Clear
46°F / 8°C 43°F / 6°C 87% 30.18 in
(1022 mb)
NW 4.6 mph
(NW 7 kph)
- 10SM
02:55
Clear
48°F / 9°C 45°F / 7°C 87% 30.18 in
(1022 mb)
ENE 3.5 mph
(ENE 6 kph)
- 10SM
01:55
Clear
48°F / 9°C 45°F / 7°C 87% 30.21 in
(1023 mb)
NW 3.5 mph
(NW 6 kph)
- 10SM
00:55
Clear
46°F / 8°C 45°F / 7°C 93% 30.21 in
(1023 mb)
Calm - 10SM
Time Weather Temperature Dewpoint Humidity Pressure Winds Precip Visibility


Weather for websites

WeatherForYou.com, LLC is not responsible for any damages or problems caused by this service. Current weather conditions are obtained from the closest station including government and personal stations which may have varying degrees of accuracy. Weather forecasts are derived from the NOAA NDFD. Like all things, this site belongs to Jesus Christ... He just trusts me to maintain it. If you have any questions or comments email webmaster@weatherforyou.com

Copyright © 2014, WeatherForYou.com LLC. All rights reserved.